Location: Lhota
(50.0887°N, 14.0116°E)
Time: 06:06:07
(UTC+00:00)

Lacrosse 5 rocket - Pass Details

Date: 19 May 2025
Orbit: 419 x 516 km, 57.0° (Epoch: 14 June)

Event Time Altitude Azimuth Distance (km) Brightness Sun altitude
Rises 21:21:49 0° 292° (WNW) 2,466 5.4 -16.6°
Reaches altitude 10° 21:24:44 10° 267° (W) 1,565 3.9 -16.8°
Maximum altitude 21:26:38 14° 234° (SW) 1,320 3.1 -16.9°
Enters shadow 21:26:58 14° 227° (SW) 1,324 3.1 -16.9°
